Date,TemperatureHighF,TemperatureAvgF,TemperatureLowF,DewpointHighF,DewpointAvgF,DewpointLowF,HumidityHigh,HumidityAvg,HumidityLow,PressureMaxIn,PressureMinIn,WindSpeedMaxMPH,WindSpeedAvgMPH,GustSpeedMaxMPH,PrecipitationSumIn
2013-6-1,88.6,75.8,63.0,74.0,68.1,63.0,99,80,53,30.18,30.10,3,0,7,0.00
2013-6-2,88.7,75.9,65.4,75.0,71.2,65.0,99,87,58,30.13,29.98,4,0,8,0.63
2013-6-3,83.6,75.5,71.4,79.0,74.0,71.0,99,95,81,29.97,29.89,5,0,7,0.86
2013-6-4,87.4,76.3,68.7,77.0,72.9,68.0,100,90,66,30.07,29.93,3,0,7,0.01
2013-6-5,79.0,75.8,73.2,76.0,74.4,72.0,99,95,87,30.07,29.99,3,1,7,0.41
2013-6-6,82.8,75.9,71.6,78.0,74.0,71.0,100,94,81,30.00,29.76,3,0,5,1.79
2013-6-7,83.6,76.8,73.4,75.0,74.2,73.0,99,92,71,29.88,29.55,8,1,14,0.58
2013-6-8,88.9,80.1,73.0,78.0,74.4,71.0,100,84,58,30.12,29.88,5,0,8,0.00
2013-6-9,86.3,78.8,72.7,82.0,75.6,72.0,100,90,74,30.16,30.09,2,0,9,0.08
2013-6-10,88.8,79.4,69.8,79.0,75.3,69.0,99,88,70,30.14,29.99,4,0,13,0.23
2013-6-11,88.4,78.0,70.0,77.0,73.6,69.0,100,87,65,30.04,29.93,5,0,11,0.00
2013-6-12,95.6,83.2,70.8,83.0,75.4,71.0,100,80,51,30.00,29.92,4,0,6,0.00
2013-6-13,96.0,86.0,76.9,82.0,77.3,74.0,99,78,53,29.93,29.72,7,0,12,0.00
2013-6-14,87.0,78.8,66.3,77.0,65.5,58.0,94,67,40,30.01,29.73,4,0,8,0.00
2013-6-15,85.2,73.7,61.3,68.0,61.6,50.0,99,70,31,30.15,30.02,4,0,6,0.00
2013-6-16,89.9,75.0,61.3,71.0,65.1,61.0,99,74,43,30.19,30.08,3,0,6,0.00
2013-6-17,91.0,77.7,65.8,77.0,71.6,65.0,99,83,56,30.11,29.98,4,0,7,0.06
2013-6-18,89.7,78.8,72.0,80.0,74.3,68.0,99,87,65,30.02,29.85,6,0,9,0.48
2013-6-19,82.9,76.8,72.6,77.0,74.8,72.0,98,93,81,30.07,29.89,3,0,5,0.36
2013-6-20,83.5,74.5,68.0,74.0,69.2,59.0,99,85,47,30.19,30.06,6,1,9,1.34
2013-6-21,84.9,74.0,63.8,74.0,68.7,62.0,97,84,64,30.20,30.13,4,1,7,0.00
2013-6-22,86.3,75.8,67.7,76.0,72.3,67.0,99,89,67,30.18,30.11,2,0,4,0.08
2013-6-23,88.3,78.4,70.3,79.0,74.2,70.0,100,88,63,30.21,30.14,2,0,5,0.00
2013-6-24,87.6,79.4,73.7,79.0,76.0,73.0,99,90,72,30.25,30.16,4,0,7,0.04
2013-6-25,92.8,79.7,73.5,80.0,75.5,72.0,99,88,59,30.18,30.07,4,0,6,0.06
2013-6-26,90.3,78.4,72.3,78.0,74.3,71.0,100,88,61,30.09,29.97,3,0,9,0.05
2013-6-27,93.3,79.6,71.9,82.0,75.8,69.0,99,89,61,30.01,29.81,3,0,7,0.04
2013-6-28,93.2,82.7,75.8,82.0,77.7,74.0,97,86,59,29.85,29.68,3,0,9,0.00
2013-6-29,90.3,79.3,72.2,80.0,75.2,71.0,98,88,65,29.79,29.70,4,0,10,0.14
2013-6-30,83.1,76.3,70.6,80.0,75.1,70.0,99,96,86,29.88,29.75,2,0,10,0.80